START_TIME,STEP,MOV.,M15,t_acc.,M20,t_acc.
1979-07-12 03:00:44.310 ,1,0,0.,24.0,0.,24.0
1979-07-12 03:01:08.310 ,2,1,0.,24.0,0.,24.0
1979-07-12 03:01:32.310 ,2,0,0.,24.0,0.,24.0
1979-07-12 03:01:56.310 ,3,1,0.,24.0,0.,24.0
1979-07-12 03:02:20.310 ,3,0,0.,24.0,0.,24.0
1979-07-12 03:02:44.310 ,4,1,0.,24.0,0.,24.0
1979-07-12 03:03:08.310 ,4,0,1.,24.0,0.,24.0
1979-07-12 03:03:32.310 ,5,1,0.,24.0,0.,24.0
1979-07-12 03:03:56.310 ,5,0,2.,24.0,0.,24.0
1979-07-12 03:04:20.300 ,6,1,0.,24.0,0.,24.0
1979-07-12 03:04:44.310 ,6,0,0.,24.0,0.,24.0
1979-07-12 03:05:08.300 ,7,1,0.,24.0,0.,24.0
1979-07-12 03:05:32.310 ,7,0,0.,24.0,0.,24.0
1979-07-12 03:05:56.300 ,7,1,0.,24.0,0.,24.0
1979-07-12 03:06:20.300 ,7,0,0.,24.0,0.,24.0
1979-07-12 03:06:44.300 ,6,1,0.,24.0,0.,24.0
1979-07-12 03:07:08.300 ,6,0,0.,24.0,0.,24.0
1979-07-12 03:07:32.300 ,5,1,0.,24.0,0.,24.0
1979-07-12 03:07:56.300 ,5,0,0.,24.0,0.,24.0
1979-07-12 03:08:20.300 ,4,1,0.,24.0,0.,24.0
1979-07-12 03:08:44.300 ,4,0,0.,24.0,0.,24.0
1979-07-12 03:09:08.300 ,3,1,0.,24.0,0.,24.0
1979-07-12 03:09:32.300 ,3,0,0.,24.0,0.,24.0
1979-07-12 03:09:56.300 ,2,1,0.,24.0,0.,24.0
1979-07-12 03:10:20.300 ,2,0,0.,24.0,0.,24.0
1979-07-12 03:10:44.300 ,1,1,0.,24.0,0.,24.0
1979-07-12 03:11:08.300 ,1,0,0.,24.0,0.,24.0
1979-07-12 03:11:32.300 ,0,1,0.,24.0,0.,24.0
1979-07-12 03:11:56.300 ,0,0,0.,24.0,0.,24.0
1979-07-12 03:12:20.300 ,0,1,0.,24.0,0.,24.0
1979-07-12 03:12:44.300 ,0,0,0.,24.0,0.,24.0
1979-07-12 03:13:08.300 ,1,1,0.,24.0,0.,24.0
1979-07-12 03:13:32.300 ,1,0,0.,24.0,0.,24.0
1979-07-12 03:13:56.300 ,2,1,0.,24.0,0.,24.0
1979-07-12 03:14:20.300 ,2,0,0.,24.0,0.,24.0
1979-07-12 03:14:44.300 ,3,1,0.,24.0,0.,24.0
1979-07-12 03:15:08.300 ,3,0,0.,24.0,0.,24.0
1979-07-12 03:15:32.300 ,4,1,0.,24.0,0.,24.0
1979-07-12 03:15:56.300 ,4,0,0.,24.0,0.,24.0
1979-07-12 03:16:20.300 ,5,1,1.,24.0,0.,24.0
1979-07-12 03:16:44.300 ,5,0,0.,24.0,0.,24.0
1979-07-12 03:17:08.300 ,6,1,0.,24.0,0.,24.0
1979-07-12 03:17:32.300 ,6,0,0.,24.0,0.,24.0
1979-07-12 03:17:56.300 ,7,1,0.,24.0,0.,24.0
1979-07-12 03:18:20.300 ,7,0,0.,24.0,0.,24.0
1979-07-12 03:18:44.300 ,7,1,0.,24.0,0.,24.0
1979-07-12 03:19:08.300 ,7,0,0.,24.0,0.,24.0
1979-07-12 03:19:32.300 ,6,1,0.,24.0,0.,24.0
1979-07-12 03:19:56.300 ,6,0,0.,24.0,0.,24.0
1979-07-12 03:20:20.300 ,5,1,0.,24.0,0.,24.0
1979-07-12 03:20:44.300 ,5,0,0.,24.0,0.,24.0
1979-07-12 03:21:08.300 ,4,1,0.,24.0,0.,24.0
1979-07-12 03:21:32.300 ,4,0,0.,24.0,0.,24.0
1979-07-12 03:21:56.300 ,3,1,0.,24.0,0.,24.0
1979-07-12 03:22:20.300 ,3,0,0.,24.0,0.,24.0
1979-07-12 03:22:44.300 ,2,1,0.,24.0,0.,24.0
1979-07-12 03:23:08.300 ,2,0,0.,24.0,0.,24.0
1979-07-12 03:23:32.300 ,1,1,0.,24.0,0.,24.0
1979-07-12 03:23:56.300 ,1,0,0.,24.0,0.,24.0
1979-07-12 03:24:20.300 ,0,1,0.,24.0,0.,24.0
1979-07-12 03:24:44.300 ,0,0,0.,24.0,0.,24.0
1979-07-12 03:25:08.300 ,0,1,0.,24.0,0.,24.0
1979-07-12 03:25:32.300 ,0,0,0.,24.0,0.,24.0
1979-07-12 03:25:56.300 ,1,1,0.,24.0,0.,24.0
1979-07-12 03:26:20.300 ,1,0,0.,24.0,0.,24.0
1979-07-12 03:26:44.300 ,2,1,0.,24.0,0.,24.0
1979-07-12 03:27:08.300 ,2,0,0.,24.0,0.,24.0
1979-07-12 03:27:32.300 ,3,1,0.,24.0,0.,24.0
1979-07-12 03:27:56.300 ,3,0,0.,24.0,0.,24.0
1979-07-12 03:28:20.300 ,4,1,0.,24.0,0.,24.0
1979-07-12 03:28:44.300 ,4,0,0.,24.0,0.,24.0
1979-07-12 03:29:08.300 ,5,1,0.,24.0,0.,24.0
1979-07-12 03:29:32.300 ,5,0,0.,24.0,0.,24.0
1979-07-12 03:29:56.300 ,6,1,0.,24.0,0.,24.0
1979-07-12 03:30:20.300 ,6,0,0.,24.0,0.,24.0
1979-07-12 03:30:44.300 ,7,0,0.,24.0,0.,24.0
1979-07-12 03:31:08.300 ,7,0,1.,24.0,0.,24.0
1979-07-12 03:31:32.300 ,3,1,1.,24.0,0.,24.0
1979-07-12 03:31:56.300 ,0,1,1.,24.0,0.,24.0
1979-07-12 03:32:20.300 ,4,1,0.,24.0,0.,24.0
1979-07-12 03:32:44.300 ,7,1,0.,24.0,0.,24.0
1979-07-12 03:33:08.300 ,3,1,0.,24.0,0.,24.0
1979-07-12 03:33:32.300 ,0,1,0.,24.0,0.,24.0
1979-07-12 03:33:56.300 ,4,1,0.,24.0,0.,24.0
1979-07-12 03:34:20.300 ,7,1,0.,24.0,0.,24.0
1979-07-12 03:34:44.300 ,3,1,0.,24.0,0.,24.0
1979-07-12 03:35:08.300 ,0,1,0.,24.0,0.,24.0
1979-07-12 03:35:32.300 ,4,1,0.,24.0,0.,24.0
1979-07-12 03:35:56.300 ,7,1,0.,24.0,0.,24.0
1979-07-12 03:36:20.300 ,3,1,1.,24.0,0.,24.0
1979-07-12 03:36:44.300 ,0,1,0.,24.0,0.,24.0
1979-07-12 03:37:08.300 ,4,1,0.,24.0,0.,24.0
1979-07-12 03:37:32.300 ,7,1,0.,24.0,0.,24.0
1979-07-12 03:37:56.300 ,3,1,0.,24.0,0.,24.0
1979-07-12 03:38:20.300 ,0,1,0.,24.0,0.,24.0
1979-07-12 03:38:44.300 ,4,1,0.,24.0,0.,24.0
1979-07-12 03:39:08.300 ,7,1,0.,24.0,0.,24.0
1979-07-12 03:39:32.300 ,3,1,0.,24.0,0.,24.0
1979-07-12 03:39:56.300 ,0,1,0.,24.0,0.,24.0
1979-07-12 03:40:20.300 ,4,1,0.,24.0,0.,24.0
1979-07-12 03:40:44.300 ,7,1,1.,24.0,0.,24.0
1979-07-12 03:41:08.300 ,3,1,0.,24.0,0.,24.0
1979-07-12 03:41:32.300 ,0,1,0.,24.0,0.,24.0
1979-07-12 03:41:56.300 ,0,0,0.,24.0,0.,24.0
1979-07-12 03:42:20.300 ,0,0,0.,24.0,0.,24.0
1979-07-12 03:42:44.300 ,5,1,0.,24.0,0.,24.0
1979-07-12 03:43:08.300 ,5,0,0.,24.0,0.,24.0
1979-07-12 03:43:32.300 ,4,1,0.,24.0,0.,24.0
1979-07-12 03:43:56.300 ,4,0,0.,24.0,0.,24.0
1979-07-12 03:44:20.300 ,3,1,0.,24.0,0.,24.0
1979-07-12 03:44:44.300 ,3,0,0.,24.0,0.,24.0
1979-07-12 03:45:08.300 ,2,1,0.,24.0,0.,24.0
1979-07-12 03:45:32.300 ,2,0,0.,24.0,0.,24.0
1979-07-12 03:45:56.300 ,1,1,0.,24.0,0.,24.0
1979-07-12 03:46:20.300 ,1,0,0.,24.0,0.,24.0
1979-07-12 03:46:44.300 ,0,1,0.,24.0,0.,24.0
1979-07-12 03:47:08.300 ,0,0,0.,24.0,0.,24.0
1979-07-12 03:47:32.300 ,0,1,0.,24.0,0.,24.0
1979-07-12 03:47:56.300 ,0,0,0.,24.0,0.,24.0
1979-07-12 03:48:20.300 ,1,1,0.,24.0,0.,24.0
1979-07-12 03:48:44.300 ,1,0,0.,24.0,0.,24.0
1979-07-12 03:49:08.300 ,2,1,0.,24.0,0.,24.0
1979-07-12 03:49:32.300 ,2,0,0.,24.0,0.,24.0
1979-07-12 03:49:56.300 ,3,1,0.,24.0,0.,24.0
1979-07-12 03:50:20.300 ,3,0,0.,24.0,0.,24.0
1979-07-12 03:50:44.300 ,4,1,1.,24.0,0.,24.0
1979-07-12 03:51:08.300 ,4,0,0.,24.0,0.,24.0
1979-07-12 03:51:32.300 ,5,1,0.,24.0,0.,24.0
1979-07-12 03:51:56.300 ,5,0,0.,24.0,0.,24.0
1979-07-12 03:52:20.300 ,6,1,0.,24.0,0.,24.0
1979-07-12 03:52:44.300 ,6,0,0.,24.0,0.,24.0
1979-07-12 03:53:08.300 ,7,1,0.,24.0,0.,24.0
1979-07-12 03:53:32.300 ,7,0,1.,24.0,0.,24.0
1979-07-12 03:53:56.300 ,7,1,0.,24.0,0.,24.0
1979-07-12 03:54:20.300 ,7,0,0.,24.0,0.,24.0
1979-07-12 03:54:44.300 ,6,1,0.,24.0,0.,24.0
1979-07-12 03:55:08.300 ,6,0,0.,24.0,0.,24.0
1979-07-12 03:55:32.300 ,5,1,1.,24.0,0.,24.0
1979-07-12 03:55:56.300 ,5,0,0.,24.0,0.,24.0
1979-07-12 03:56:20.300 ,4,1,0.,24.0,0.,24.0
1979-07-12 03:56:44.300 ,4,0,0.,24.0,0.,24.0
1979-07-12 03:57:08.300 ,3,1,0.,24.0,0.,24.0
1979-07-12 03:57:32.300 ,3,0,0.,24.0,0.,24.0
1979-07-12 03:57:56.300 ,2,1,0.,24.0,0.,24.0
1979-07-12 03:58:20.300 ,2,0,0.,24.0,0.,24.0
1979-07-12 03:58:44.300 ,1,1,0.,24.0,0.,24.0
1979-07-12 03:59:08.300 ,1,0,0.,24.0,0.,24.0
1979-07-12 03:59:32.300 ,0,1,0.,24.0,0.,24.0
1979-07-12 03:59:56.300 ,0,0,0.,24.0,0.,24.0
1979-07-12 04:00:20.300 ,0,1,0.,24.0,0.,24.0
1979-07-12 04:00:44.300 ,0,0,0.,24.0,0.,24.0
1979-07-12 04:01:08.300 ,1,1,0.,24.0,0.,24.0
1979-07-12 04:01:32.300 ,1,0,0.,24.0,0.,24.0
1979-07-12 04:01:56.300 ,2,1,0.,24.0,0.,24.0
1979-07-12 04:02:20.300 ,2,0,0.,24.0,0.,24.0
1979-07-12 04:02:44.300 ,3,1,0.,24.0,0.,24.0
1979-07-12 04:03:08.300 ,3,0,0.,24.0,0.,24.0
1979-07-12 04:03:32.300 ,4,1,0.,24.0,0.,24.0
1979-07-12 04:03:56.300 ,4,0,0.,24.0,0.,24.0
1979-07-12 04:04:20.300 ,5,1,0.,24.0,0.,24.0
1979-07-12 04:04:44.300 ,5,0,0.,24.0,0.,24.0
1979-07-12 04:05:08.300 ,6,1,0.,24.0,0.,24.0
1979-07-12 04:05:32.300 ,6,0,0.,24.0,0.,24.0
1979-07-12 04:05:56.300 ,7,1,0.,24.0,0.,24.0
1979-07-12 04:06:20.300 ,7,0,0.,24.0,0.,24.0
1979-07-12 04:06:44.300 ,7,1,0.,24.0,0.,24.0
1979-07-12 04:07:08.300 ,7,0,0.,24.0,0.,24.0
1979-07-12 04:07:32.300 ,6,1,0.,24.0,0.,24.0
1979-07-12 04:07:56.300 ,6,0,0.,24.0,0.,24.0
1979-07-12 04:08:20.300 ,5,1,0.,24.0,0.,24.0
1979-07-12 04:08:44.300 ,5,0,0.,24.0,0.,24.0
1979-07-12 04:09:08.300 ,4,1,0.,24.0,0.,24.0
1979-07-12 04:09:32.300 ,4,0,0.,24.0,0.,24.0
1979-07-12 04:09:56.300 ,3,1,0.,24.0,0.,24.0
1979-07-12 04:10:20.300 ,3,0,0.,24.0,0.,24.0
1979-07-12 04:10:44.300 ,2,1,0.,24.0,0.,24.0
1979-07-12 04:11:08.300 ,2,0,0.,24.0,0.,24.0
1979-07-12 04:11:32.300 ,1,1,0.,24.0,0.,24.0
1979-07-12 04:11:56.300 ,1,0,0.,24.0,0.,24.0
1979-07-12 04:12:20.300 ,0,1,0.,24.0,0.,24.0
1979-07-12 04:12:44.300 ,0,0,1.,24.0,0.,24.0
1979-07-12 04:13:08.300 ,0,1,0.,24.0,0.,24.0
1979-07-12 04:13:32.300 ,0,0,0.,24.0,0.,24.0
1979-07-12 04:13:56.300 ,1,1,0.,24.0,0.,24.0
1979-07-12 04:14:20.300 ,1,0,0.,24.0,0.,24.0
1979-07-12 04:14:44.300 ,2,1,1.,24.0,0.,24.0
1979-07-12 04:15:08.300 ,2,0,0.,24.0,0.,24.0
1979-07-12 04:15:32.300 ,3,1,0.,24.0,0.,24.0
1979-07-12 04:15:56.300 ,3,0,0.,24.0,0.,24.0
1979-07-12 04:16:20.300 ,4,1,0.,24.0,0.,24.0
1979-07-12 04:16:44.300 ,4,0,0.,24.0,0.,24.0
1979-07-12 04:17:08.300 ,5,1,0.,24.0,0.,24.0
1979-07-12 04:17:32.300 ,5,0,0.,24.0,0.,24.0
1979-07-12 04:17:56.300 ,6,1,0.,24.0,0.,24.0
1979-07-12 04:18:20.300 ,6,0,0.,24.0,0.,24.0
1979-07-12 04:18:44.300 ,7,0,0.,24.0,0.,24.0
1979-07-12 04:19:08.300 ,7,0,0.,24.0,0.,24.0
1979-07-12 04:19:32.300 ,3,1,0.,24.0,0.,24.0
1979-07-12 04:19:56.300 ,0,1,0.,24.0,0.,24.0
1979-07-12 04:20:20.300 ,4,1,0.,24.0,0.,24.0
1979-07-12 04:20:44.300 ,7,1,0.,24.0,0.,24.0
1979-07-12 04:21:08.300 ,3,1,0.,24.0,0.,24.0
1979-07-12 04:21:32.300 ,0,1,0.,24.0,0.,24.0
1979-07-12 04:21:56.300 ,4,1,0.,24.0,0.,24.0
1979-07-12 04:22:20.300 ,7,1,0.,24.0,0.,24.0
1979-07-12 04:22:44.300 ,3,1,1.,24.0,0.,24.0
1979-07-12 04:23:08.300 ,0,1,0.,24.0,0.,24.0
1979-07-12 04:23:32.300 ,4,1,0.,24.0,0.,24.0
1979-07-12 04:23:56.300 ,7,1,0.,24.0,0.,24.0
1979-07-12 04:24:20.300 ,3,1,0.,24.0,0.,24.0
1979-07-12 04:24:44.300 ,0,1,0.,24.0,0.,24.0
1979-07-12 04:25:08.300 ,4,1,0.,24.0,0.,24.0
1979-07-12 04:25:32.300 ,7,1,0.,24.0,0.,24.0
1979-07-12 04:25:56.300 ,3,1,0.,24.0,0.,24.0
1979-07-12 04:26:20.300 ,0,1,0.,24.0,0.,24.0
1979-07-12 04:26:44.300 ,4,1,0.,24.0,0.,24.0
1979-07-12 04:27:08.300 ,7,1,0.,24.0,0.,24.0
1979-07-12 04:27:32.300 ,3,1,0.,24.0,0.,24.0
1979-07-12 04:27:56.300 ,0,1,0.,24.0,0.,24.0
1979-07-12 04:28:20.300 ,4,1,0.,24.0,0.,24.0
1979-07-12 04:28:44.300 ,7,1,0.,24.0,0.,24.0
1979-07-12 04:29:08.300 ,3,1,0.,24.0,0.,24.0
1979-07-12 04:29:32.300 ,0,1,0.,24.0,0.,24.0
1979-07-12 04:29:56.300 ,0,0,0.,24.0,0.,24.0
1979-07-12 04:30:20.300 ,0,0,0.,24.0,0.,24.0
1979-07-12 04:30:44.300 ,5,1,0.,24.0,0.,24.0
1979-07-12 04:31:08.300 ,5,0,0.,24.0,0.,24.0
1979-07-12 04:31:32.300 ,4,1,0.,24.0,0.,24.0
1979-07-12 04:31:56.300 ,4,0,0.,24.0,0.,24.0
1979-07-12 04:32:20.300 ,3,1,0.,24.0,0.,24.0
1979-07-12 04:32:44.300 ,3,0,0.,24.0,0.,24.0
1979-07-12 04:33:08.300 ,2,1,0.,24.0,0.,24.0
1979-07-12 04:33:32.300 ,2,0,0.,24.0,0.,24.0
1979-07-12 04:33:56.300 ,1,1,0.,24.0,0.,24.0
1979-07-12 04:34:20.300 ,1,0,0.,24.0,0.,24.0
1979-07-12 04:34:44.300 ,0,1,0.,24.0,0.,24.0
1979-07-12 04:35:08.300 ,0,0,0.,24.0,0.,24.0
1979-07-12 04:35:32.300 ,0,1,0.,24.0,0.,24.0
1979-07-12 04:35:56.300 ,0,0,0.,24.0,0.,24.0
1979-07-12 04:36:20.300 ,1,1,0.,24.0,0.,24.0
1979-07-12 04:36:44.300 ,1,0,0.,24.0,0.,24.0
1979-07-12 04:37:08.300 ,2,1,0.,24.0,0.,24.0
1979-07-12 04:37:32.300 ,2,0,0.,24.0,0.,24.0
1979-07-12 04:37:56.300 ,3,1,0.,24.0,0.,24.0
1979-07-12 04:38:20.300 ,3,0,1.,24.0,0.,24.0
1979-07-12 04:38:44.300 ,4,1,0.,24.0,0.,24.0
1979-07-12 04:39:08.300 ,4,0,0.,24.0,0.,24.0
1979-07-12 04:39:32.300 ,5,1,0.,24.0,0.,24.0
1979-07-12 04:39:56.300 ,5,0,0.,24.0,0.,24.0
1979-07-12 04:40:20.300 ,6,1,0.,24.0,0.,24.0
1979-07-12 04:40:44.300 ,6,0,0.,24.0,0.,24.0
1979-07-12 04:41:08.300 ,7,1,0.,24.0,0.,24.0
1979-07-12 04:41:32.300 ,7,0,0.,24.0,0.,24.0
1979-07-12 04:41:56.300 ,7,1,0.,24.0,0.,24.0
1979-07-12 04:42:20.300 ,7,0,0.,24.0,0.,24.0
1979-07-12 04:42:44.300 ,6,1,0.,24.0,0.,24.0
1979-07-12 04:43:08.300 ,6,0,0.,24.0,0.,24.0
1979-07-12 04:43:32.300 ,5,1,0.,24.0,0.,24.0
1979-07-12 04:43:56.300 ,5,0,0.,24.0,0.,24.0
1979-07-12 04:44:20.300 ,4,1,0.,24.0,0.,24.0
1979-07-12 04:44:44.300 ,4,0,0.,24.0,0.,24.0
1979-07-12 04:45:08.300 ,3,1,0.,24.0,0.,24.0
1979-07-12 04:45:32.300 ,3,0,0.,24.0,0.,24.0
1979-07-12 04:45:56.300 ,2,1,0.,24.0,0.,24.0
1979-07-12 04:46:20.300 ,2,0,0.,24.0,0.,24.0
1979-07-12 04:46:44.300 ,1,1,0.,24.0,0.,24.0
1979-07-12 04:47:08.300 ,1,0,0.,24.0,0.,24.0
1979-07-12 04:47:32.300 ,0,1,1.,24.0,0.,24.0
1979-07-12 04:47:56.300 ,0,0,0.,24.0,0.,24.0
1979-07-12 04:48:20.300 ,0,1,0.,24.0,0.,24.0
1979-07-12 04:48:44.300 ,0,0,0.,24.0,0.,24.0
1979-07-12 04:49:08.300 ,1,1,0.,24.0,0.,24.0
1979-07-12 04:49:32.300 ,1,0,0.,24.0,0.,24.0
1979-07-12 04:49:56.300 ,2,1,0.,24.0,0.,24.0
1979-07-12 04:50:20.300 ,2,0,0.,24.0,0.,24.0
1979-07-12 04:50:44.300 ,3,1,0.,24.0,0.,24.0
1979-07-12 04:51:08.300 ,3,0,0.,24.0,0.,24.0
1979-07-12 04:51:32.300 ,4,1,0.,24.0,0.,24.0
1979-07-12 04:51:56.300 ,4,0,0.,24.0,0.,24.0
1979-07-12 04:52:20.300 ,5,1,0.,24.0,0.,24.0
1979-07-12 04:52:44.300 ,5,0,1.,24.0,0.,24.0
1979-07-12 04:53:08.300 ,6,1,0.,24.0,0.,24.0
1979-07-12 04:53:32.300 ,6,0,0.,24.0,0.,24.0
1979-07-12 04:53:56.300 ,7,1,0.,24.0,0.,24.0
1979-07-12 04:54:20.300 ,7,0,0.,24.0,0.,24.0
1979-07-12 04:54:44.300 ,7,1,0.,24.0,0.,24.0
1979-07-12 04:55:08.300 ,7,0,0.,24.0,0.,24.0
1979-07-12 04:55:32.300 ,6,1,0.,24.0,0.,24.0
1979-07-12 04:55:56.300 ,6,0,0.,24.0,0.,24.0
1979-07-12 04:56:20.300 ,5,1,0.,24.0,0.,24.0
1979-07-12 04:56:44.300 ,5,0,0.,24.0,0.,24.0
1979-07-12 04:57:08.300 ,4,1,0.,24.0,0.,24.0
1979-07-12 04:57:32.300 ,4,0,0.,24.0,0.,24.0
1979-07-12 04:57:56.300 ,3,1,0.,24.0,0.,24.0
1979-07-12 04:58:20.300 ,3,0,0.,24.0,0.,24.0
1979-07-12 04:58:44.300 ,2,1,0.,24.0,0.,24.0
1979-07-12 04:59:08.300 ,2,0,0.,24.0,0.,24.0
1979-07-12 04:59:32.300 ,1,1,0.,24.0,0.,24.0
1979-07-12 04:59:56.300 ,1,0,0.,24.0,0.,24.0
1979-07-12 05:00:20.300 ,0,1,0.,24.0,0.,24.0
1979-07-12 05:00:44.300 ,0,0,0.,24.0,0.,24.0
1979-07-12 05:01:08.300 ,0,1,0.,24.0,0.,24.0
1979-07-12 05:01:32.300 ,0,0,0.,24.0,0.,24.0
1979-07-12 05:01:56.300 ,1,1,0.,24.0,0.,24.0
1979-07-12 05:02:20.300 ,1,0,0.,24.0,0.,24.0
1979-07-12 05:02:44.300 ,2,1,0.,24.0,0.,24.0
1979-07-12 05:03:08.300 ,2,0,0.,24.0,0.,24.0
1979-07-12 05:03:32.300 ,3,1,0.,24.0,0.,24.0
1979-07-12 05:03:56.300 ,3,0,0.,24.0,0.,24.0
1979-07-12 05:04:20.300 ,4,1,1.,24.0,0.,24.0
1979-07-12 05:04:44.300 ,4,0,0.,24.0,0.,24.0
1979-07-12 05:05:08.300 ,5,1,0.,24.0,0.,24.0
1979-07-12 05:05:32.300 ,5,0,0.,24.0,0.,24.0
1979-07-12 05:05:56.300 ,6,1,0.,24.0,0.,24.0
1979-07-12 05:06:20.300 ,6,0,0.,24.0,0.,24.0
1979-07-12 05:06:44.300 ,7,0,0.,24.0,0.,24.0
1979-07-12 05:07:08.300 ,7,0,0.,24.0,0.,24.0
1979-07-12 05:07:32.300 ,3,1,0.,24.0,0.,24.0
1979-07-12 05:07:56.300 ,0,1,0.,24.0,0.,24.0
1979-07-12 05:08:20.300 ,4,1,0.,24.0,0.,24.0
1979-07-12 05:08:44.300 ,7,1,0.,24.0,0.,24.0
1979-07-12 05:09:08.300 ,3,1,0.,24.0,0.,24.0
1979-07-12 05:09:32.300 ,0,1,0.,24.0,0.,24.0
1979-07-12 05:09:56.300 ,4,1,1.,24.0,0.,24.0
1979-07-12 05:10:20.300 ,7,1,0.,24.0,0.,24.0
1979-07-12 05:10:44.300 ,3,1,0.,24.0,0.,24.0
1979-07-12 05:11:08.300 ,0,1,0.,24.0,0.,24.0
1979-07-12 05:11:32.300 ,4,1,0.,24.0,0.,24.0
1979-07-12 05:11:56.300 ,7,1,0.,24.0,0.,24.0
1979-07-12 05:12:20.300 ,3,1,0.,24.0,0.,24.0
1979-07-12 05:12:44.300 ,0,1,0.,24.0,0.,24.0
1979-07-12 05:13:08.300 ,4,1,0.,24.0,0.,24.0
1979-07-12 05:13:32.300 ,7,1,0.,24.0,0.,24.0
1979-07-12 05:13:56.300 ,3,1,0.,24.0,0.,24.0
1979-07-12 05:14:20.300 ,0,1,1.,24.0,0.,24.0
1979-07-12 05:14:44.300 ,4,1,1.,24.0,0.,24.0
1979-07-12 05:15:08.300 ,7,1,0.,24.0,0.,24.0
1979-07-12 05:15:32.300 ,3,1,0.,24.0,0.,24.0
1979-07-12 05:15:56.300 ,0,1,0.,24.0,0.,24.0
1979-07-12 05:16:20.300 ,4,1,0.,24.0,0.,24.0
1979-07-12 05:16:44.300 ,7,1,0.,24.0,0.,24.0
1979-07-12 05:17:08.300 ,3,1,0.,24.0,0.,24.0
1979-07-12 05:17:32.300 ,0,1,0.,24.0,0.,24.0
1979-07-12 05:17:56.300 ,0,0,0.,24.0,0.,24.0
1979-07-12 05:18:20.300 ,0,0,0.,24.0,0.,24.0
1979-07-12 05:18:44.300 ,5,1,0.,24.0,0.,24.0
1979-07-12 05:19:08.300 ,5,0,1.,24.0,0.,24.0
1979-07-12 05:19:32.300 ,4,1,0.,24.0,0.,24.0
1979-07-12 05:19:56.300 ,4,0,0.,24.0,0.,24.0
1979-07-12 05:20:20.300 ,3,1,0.,24.0,0.,24.0
1979-07-12 05:20:44.300 ,3,0,0.,24.0,0.,24.0
1979-07-12 05:21:08.300 ,2,1,0.,24.0,0.,24.0
1979-07-12 05:21:32.300 ,2,0,0.,24.0,0.,24.0
1979-07-12 05:21:56.300 ,1,1,0.,24.0,0.,24.0
1979-07-12 05:22:20.300 ,1,0,0.,24.0,0.,24.0
1979-07-12 05:22:44.300 ,0,1,0.,24.0,0.,24.0
1979-07-12 05:23:08.300 ,0,0,0.,24.0,0.,24.0
1979-07-12 05:23:32.300 ,0,1,0.,24.0,0.,24.0
1979-07-12 05:23:56.300 ,0,0,0.,24.0,0.,24.0
1979-07-12 05:24:20.300 ,1,1,0.,24.0,0.,24.0
1979-07-12 05:24:44.300 ,1,0,0.,24.0,0.,24.0
1979-07-12 05:25:08.300 ,2,1,0.,24.0,0.,24.0
1979-07-12 05:25:32.300 ,2,0,0.,24.0,0.,24.0
1979-07-12 05:25:56.300 ,3,1,0.,24.0,0.,24.0
1979-07-12 05:26:20.300 ,3,0,0.,24.0,0.,24.0
1979-07-12 05:26:44.300 ,4,1,0.,24.0,0.,24.0
1979-07-12 05:27:08.300 ,4,0,0.,24.0,0.,24.0
1979-07-12 05:27:32.300 ,5,1,0.,24.0,0.,24.0
1979-07-12 05:27:56.300 ,5,0,0.,24.0,0.,24.0
1979-07-12 05:28:20.300 ,6,1,0.,24.0,0.,24.0
1979-07-12 05:28:44.300 ,6,0,0.,24.0,0.,24.0
1979-07-12 05:29:08.300 ,7,1,0.,24.0,0.,24.0
1979-07-12 05:29:32.300 ,7,0,0.,24.0,0.,24.0
1979-07-12 05:29:56.300 ,7,1,0.,24.0,0.,24.0
1979-07-12 05:30:20.300 ,7,0,0.,24.0,0.,24.0
1979-07-12 05:30:44.300 ,6,1,0.,24.0,0.,24.0
1979-07-12 05:31:08.300 ,6,0,0.,24.0,0.,24.0
1979-07-12 05:31:32.300 ,5,1,0.,24.0,0.,24.0
1979-07-12 05:31:56.300 ,5,0,0.,24.0,0.,24.0
1979-07-12 05:32:20.300 ,4,1,0.,24.0,0.,24.0
1979-07-12 05:32:44.300 ,4,0,0.,24.0,0.,24.0
1979-07-12 05:33:08.300 ,3,1,0.,24.0,0.,24.0
1979-07-12 05:33:32.300 ,3,0,0.,24.0,0.,24.0
1979-07-12 05:33:56.300 ,2,1,0.,24.0,0.,24.0
1979-07-12 05:34:20.300 ,2,0,0.,24.0,0.,24.0
1979-07-12 05:34:44.300 ,1,1,1.,24.0,0.,24.0
1979-07-12 05:35:08.300 ,1,0,0.,24.0,0.,24.0
1979-07-12 05:35:32.300 ,0,1,0.,24.0,0.,24.0
1979-07-12 05:35:56.300 ,0,0,0.,24.0,0.,24.0
1979-07-12 05:36:20.300 ,0,1,0.,24.0,0.,24.0
1979-07-12 05:36:44.300 ,0,0,0.,24.0,0.,24.0
1979-07-12 05:37:08.300 ,1,1,0.,24.0,0.,24.0
1979-07-12 05:37:32.300 ,1,0,0.,24.0,0.,24.0
1979-07-12 05:37:56.300 ,2,1,0.,24.0,0.,24.0
1979-07-12 05:38:20.300 ,2,0,0.,24.0,0.,24.0
1979-07-12 05:38:44.300 ,3,1,1.,24.0,0.,24.0
1979-07-12 05:39:08.300 ,3,0,0.,24.0,0.,24.0
1979-07-12 05:39:32.300 ,4,1,0.,24.0,0.,24.0
1979-07-12 05:39:56.300 ,4,0,0.,24.0,0.,24.0
1979-07-12 05:40:20.300 ,5,1,0.,24.0,0.,24.0
1979-07-12 05:40:44.300 ,5,0,0.,24.0,0.,24.0
1979-07-12 05:41:08.300 ,6,1,0.,24.0,0.,24.0
1979-07-12 05:41:32.300 ,6,0,0.,24.0,0.,24.0
1979-07-12 05:41:56.300 ,7,1,0.,24.0,0.,24.0
1979-07-12 05:42:20.300 ,7,0,0.,24.0,0.,24.0
1979-07-12 05:42:44.300 ,7,1,0.,24.0,0.,24.0
1979-07-12 05:43:08.300 ,7,0,0.,24.0,0.,24.0
1979-07-12 05:43:32.300 ,6,1,1.,24.0,0.,24.0
1979-07-12 05:43:56.300 ,6,0,0.,24.0,0.,24.0
1979-07-12 05:44:20.300 ,5,1,0.,24.0,0.,24.0
1979-07-12 05:44:44.300 ,5,0,0.,24.0,0.,24.0
1979-07-12 05:45:08.300 ,4,1,0.,24.0,0.,24.0
1979-07-12 05:45:32.300 ,4,0,0.,24.0,0.,24.0
1979-07-12 05:45:56.300 ,3,1,0.,24.0,0.,24.0
1979-07-12 05:46:20.300 ,3,0,0.,24.0,0.,24.0
1979-07-12 05:46:44.300 ,2,1,0.,24.0,0.,24.0
1979-07-12 05:47:08.300 ,2,0,0.,24.0,0.,24.0
1979-07-12 05:47:32.300 ,1,1,0.,24.0,0.,24.0
1979-07-12 05:47:56.300 ,1,0,0.,24.0,0.,24.0
1979-07-12 05:48:20.300 ,0,1,0.,24.0,0.,24.0
1979-07-12 05:48:44.300 ,0,0,0.,24.0,0.,24.0
1979-07-12 05:49:08.300 ,0,1,0.,24.0,0.,24.0
1979-07-12 05:49:32.300 ,0,0,0.,24.0,0.,24.0
1979-07-12 05:49:56.300 ,1,1,0.,24.0,0.,24.0
1979-07-12 05:50:20.300 ,1,0,0.,24.0,0.,24.0
1979-07-12 05:50:44.300 ,2,1,0.,24.0,0.,24.0
1979-07-12 05:51:08.300 ,2,0,0.,24.0,0.,24.0
1979-07-12 05:51:32.300 ,3,1,0.,24.0,0.,24.0
1979-07-12 05:51:56.300 ,3,0,0.,24.0,0.,24.0
1979-07-12 05:52:20.300 ,4,1,1.,24.0,0.,24.0
1979-07-12 05:52:44.300 ,4,0,0.,24.0,0.,24.0
1979-07-12 05:53:08.300 ,5,1,0.,24.0,0.,24.0
1979-07-12 05:53:32.300 ,5,0,0.,24.0,0.,24.0
1979-07-12 05:53:56.300 ,6,1,0.,24.0,0.,24.0
1979-07-12 05:54:20.300 ,6,0,0.,24.0,0.,24.0
1979-07-12 05:54:44.300 ,7,0,0.,24.0,0.,24.0
1979-07-12 05:55:08.300 ,7,0,0.,24.0,0.,24.0
1979-07-12 05:55:32.300 ,3,1,0.,24.0,0.,24.0
1979-07-12 05:55:56.300 ,0,1,0.,24.0,0.,24.0
1979-07-12 05:56:20.300 ,4,1,0.,24.0,0.,24.0
1979-07-12 05:56:44.300 ,7,1,0.,24.0,0.,24.0
1979-07-12 05:57:08.300 ,3,1,0.,24.0,0.,24.0
1979-07-12 05:57:32.300 ,0,1,0.,24.0,0.,24.0
1979-07-12 05:57:56.300 ,4,1,0.,24.0,0.,24.0
1979-07-12 05:58:20.300 ,7,1,0.,24.0,0.,24.0
1979-07-12 05:58:44.300 ,3,1,0.,24.0,0.,24.0
1979-07-12 05:59:08.300 ,0,1,0.,24.0,0.,24.0
1979-07-12 05:59:32.300 ,4,1,1.,24.0,0.,24.0
1979-07-12 05:59:56.300 ,7,1,0.,24.0,0.,24.0
1979-07-12 06:00:20.300 ,3,1,0.,24.0,0.,24.0
